User: anonymous   Login
Location: Newark
(44.3248°N, 23.7839°E)
Time: 05:33:38
(UTC+00:00)
Language:

PRISM - Orbit

View from above orbital plane
View from above orbital plane
View from above satellite
View from above satellite

Ground track
Ground track

The orbit data is extracted from the following two-line orbital elements,

1 33493U 09002B   24106.09306876  .00026350  00000-0  13757-2 0  9996
2 33493  98.2132 148.4208 0014572 106.2112 254.0723 15.15810324829471
Epoch (UTC): 15 April 2024 02:14:01
Eccentricity: 0.0014572
inclination: 98.2132°
perigee height: 508 km
apogee height: 528 km
right ascension of ascending node: 148.4208°
argument of perigee: 106.2112°
revolutions per day: 15.15810324
mean anomaly at epoch: 254.0723°
orbit number at epoch: 82947

The dashed part of the orbit path shows where the satellite is in the earth's shadow,  

DLR